Location: Alvediston
(51.0078°N, 2.0364°W)
Time: 10:55:38
(UTC+00:00)

Cosmos 2285 Rocket - Pass Details

Date: 27 February 2020
Orbit: 970 x 999 km, 74.0° (Epoch: 04 April)

Event Time Altitude Azimuth Distance (km) Brightness Sun altitude
Rises 18:18:47 0° 334° (NNW) 3,699 7.3 -6.1°
Reaches altitude 10° 18:21:19 10° 333° (NNW) 2,752 6.7 -6.5°
Maximum altitude 18:27:42 76° 250° (WSW) 1,022 4.3 -7.5°
Drops below altitude 10° 18:34:05 10° 165° (SSE) 2,754 6.2 -8.5°
Sets 18:36:38 0° 164° (SSE) 3,702 6.9 -8.9°
